TimeEST,TemperatureF,Dew PointF,Humidity,Sea Level PressureIn,VisibilityMPH,Wind Direction,Wind SpeedMPH,Gust SpeedMPH,PrecipitationIn,Events,Conditions,WindDirDegrees,DateUTC
12:53 AM,27.0,21.0,78,30.39,10.0,Calm,Calm,-,N/A,,Clear,0,2013-12-28 05:53:00
1:53 AM,27.0,21.0,78,30.38,10.0,SW,3.5,-,N/A,,Clear,220,2013-12-28 06:53:00
2:53 AM,26.1,21.0,81,30.38,10.0,Calm,Calm,-,N/A,,Clear,0,2013-12-28 07:53:00
3:53 AM,26.1,21.0,81,30.37,10.0,WSW,3.5,-,N/A,,Clear,250,2013-12-28 08:53:00
4:53 AM,24.1,19.9,84,30.36,10.0,WSW,3.5,-,N/A,,Clear,240,2013-12-28 09:53:00
5:53 AM,24.1,19.9,84,30.37,10.0,SW,3.5,-,N/A,,Clear,230,2013-12-28 10:53:00
6:53 AM,24.1,21.0,88,30.39,10.0,SW,3.5,-,N/A,,Clear,230,2013-12-28 11:53:00
7:53 AM,25.0,21.0,85,30.38,10.0,Calm,Calm,-,N/A,,Clear,0,2013-12-28 12:53:00
8:53 AM,28.9,24.1,82,30.39,10.0,SW,3.5,-,N/A,,Clear,230,2013-12-28 13:53:00
9:53 AM,35.1,25.0,67,30.39,10.0,Calm,Calm,-,N/A,,Clear,0,2013-12-28 14:53:00
10:53 AM,41.0,28.0,60,30.39,10.0,SW,4.6,-,N/A,,Clear,230,2013-12-28 15:53:00
11:53 AM,51.1,28.0,41,30.34,10.0,SW,4.6,-,N/A,,Clear,220,2013-12-28 16:53:00
12:53 PM,57.9,25.0,28,30.29,10.0,SSW,5.8,-,N/A,,Clear,210,2013-12-28 17:53:00
1:53 PM,60.1,24.1,25,30.26,10.0,SW,10.4,-,N/A,,Clear,220,2013-12-28 18:53:00
2:53 PM,59.0,21.9,24,30.27,10.0,SW,8.1,-,N/A,,Clear,220,2013-12-28 19:53:00
3:53 PM,57.0,23.0,27,30.27,10.0,SW,8.1,-,N/A,,Clear,230,2013-12-28 20:53:00
4:53 PM,51.1,27.0,39,30.25,10.0,SW,3.5,-,N/A,,Clear,230,2013-12-28 21:53:00
5:53 PM,46.9,28.0,48,30.25,10.0,Calm,Calm,-,N/A,,Clear,0,2013-12-28 22:53:00
6:53 PM,48.9,27.0,43,30.24,10.0,SSW,3.5,-,N/A,,Clear,200,2013-12-28 23:53:00
7:53 PM,48.9,26.1,41,30.23,10.0,Calm,Calm,-,N/A,,Overcast,0,2013-12-29 00:53:00
8:53 PM,46.9,30.9,54,30.22,10.0,SSW,4.6,-,0.00,Rain,Light Rain,200,2013-12-29 01:53:00
9:53 PM,43.0,39.9,89,30.18,10.0,Calm,Calm,-,0.04,Rain,Light Rain,0,2013-12-29 02:53:00
10:53 PM,42.1,39.9,92,30.20,9.0,Calm,Calm,-,0.03,Rain,Light Rain,0,2013-12-29 03:53:00
11:53 PM,42.1,39.9,92,30.19,7.0,Calm,Calm,-,0.04,Rain,Light Rain,0,2013-12-29 04:53:00